Weather History for CWZA - March, 2013

Change the Weather History Date:

Monday, March 25, 2013

  Actual Average Record
Temperature  
Mean Temperature 50 °F -  
Max Temperature 61 °F - - ()
Min Temperature 38 °F - - ()
Degree Days  
Heating Degree Days 16    
Moisture  
Dew Point 33 °F    
Average Humidity 56    
Maximum Humidity 74    
Minimum Humidity 19    
Precipitation  
Precipitation 0.00 in - - ()
Sea Level Pressure  
Sea Level Pressure 30.07 in    
Wind  
Wind Speed 5 mph ()    
Max Wind Speed 16 mph    
Max Gust Speed 23 mph    
T = Trace of Precipitation, MM = Missing Value Source: Averaged Metar Reports

Daily Weather History Graph

Daily Weather History Graph

Search for Another Location

Airport or City:

Trip Planner

Search our weather history database for the weather conditions in past years. The results will help you decide how hot, cold, wet, or windy it might be!

Date:

Astronomy

Mar. 25, 2013 Rise Set
Actual Time 6:58 AM PDT 7:28 PM PDT
Civil Twilight 6:26 AM PDT 8:00 PM PDT
Nautical Twilight 5:48 AM PDT 8:38 PM PDT
Astronomical Twilight 5:09 AM PDT 9:17 PM PDT
Moon 6:01 PM PDT (3/25) 5:51 AM PDT (3/25)
Length of Visible Light 13h 33m
Length of Day
12h 29m
Waxing Gibbous, 97% of the Moon is Illuminated
Mar 25
Waxing Gibbous
Mar 27
Full
Apr 2
Last Quarter
Apr 10
New
Apr 18
First Quarter

Hourly Weather History & Observations

Time (PDT) Temp. Windchill Dew Point Humidity Pressure Visibility Wind Dir Wind Speed Gust Speed Precip Events Conditions
12:00 AM 41.2 °F 34.1 °F 33.6 °F 74% 30.17 in - NE 12.7 mph 23.0 mph N/A   Unknown
2:00 AM 40.8 °F 37.8 °F 32.9 °F 73% 30.17 in - NNE 4.6 mph - N/A   Unknown
3:00 AM 39.6 °F 37.4 °F 31.5 °F 73% 30.16 in - NNE 3.5 mph - N/A   Unknown
4:00 AM 40.3 °F 36.3 °F 31.8 °F 72% 30.15 in - North 5.8 mph - N/A   Unknown
5:00 AM 40 °F - 32 °F 64% 30.15 in - NNW 5.8 mph - -  
5:00 AM 39.6 °F 35.4 °F 32.0 °F 74% 30.15 in - NNW 5.8 mph - N/A   Unknown
6:00 AM 40.5 °F 38.4 °F 32.0 °F 72% 30.15 in - NW 3.5 mph - N/A   Unknown
7:00 AM 40.5 °F 36.5 °F 31.1 °F 69% 30.13 in - NNE 5.8 mph - N/A   Unknown
8:00 AM 41.7 °F 39.8 °F 31.3 °F 66% 30.12 in - NNW 3.5 mph - N/A   Unknown
9:00 AM 42.3 °F 38.6 °F 31.5 °F 66% 30.13 in - NNE 5.8 mph - N/A   Unknown
10:00 AM 45.0 °F 43.5 °F 33.3 °F 64% 30.12 in - NNE 3.5 mph - N/A   Unknown
11:00 AM 48 °F - 32 °F 41% 30.11 in - NNW 3.5 mph - -  
11:00 AM 48.4 °F - 31.8 °F 53% 30.11 in - NNW 3.5 mph - N/A   Unknown
12:00 PM 52.5 °F - 31.8 °F 45% 30.08 in - NW 4.6 mph - N/A   Unknown
1:00 PM 55.2 °F - 30.6 °F 39% 30.06 in - West 2.3 mph - N/A   Unknown
2:00 PM 58.3 °F - 31.8 °F 37% 30.03 in - SSE 2.3 mph - N/A   Unknown
3:00 PM 58.5 °F - 28.4 °F 32% 30.00 in - South 4.6 mph - N/A   Unknown
4:00 PM 59.7 °F - 30.4 °F 33% 29.99 in - SW 2.3 mph - N/A   Unknown
5:00 PM 61 °F - 30 °F 19% 29.97 in - NW 1.2 mph - -  
5:00 PM 61.3 °F - 29.7 °F 30% 29.97 in - NW 1.2 mph - N/A   Unknown
6:00 PM 59.7 °F - 31.6 °F 35% 29.96 in - NNW 3.5 mph - N/A   Unknown
7:00 PM 53.6 °F - 38.7 °F 57% 29.96 in - NW 2.3 mph - N/A   Unknown
8:00 PM 45.3 °F - 37.0 °F 73% 29.96 in - Calm Calm - N/A   Unknown
9:00 PM 50.2 °F - 36.1 °F 59% 29.98 in - NE 11.5 mph 18.4 mph N/A   Unknown
10:00 PM 47.8 °F - 35.6 °F 63% 29.99 in - NW 2.3 mph - N/A   Unknown
11:00 PM 47 °F - 36 °F 56% 30.00 in - NE 16.1 mph - -  
11:00 PM 46.9 °F - 36.1 °F 66% 30.00 in - NE 16.1 mph 23.0 mph N/A   Unknown